User: anonymous   Login
Location: Oshawa
(43.9000°N, 78.8670°W)
Time: 20:45:21
(UTC-04:00)
Language:

Envisat - Orbit

View from above orbital plane
View from above orbital plane
View from above satellite
View from above satellite

Ground track
Ground track

The orbit data is extracted from the following two-line orbital elements,

1 27386U 02009A   17232.54489491 -.00000026 +00000-0 +50647-5 0  9992
2 27386 098.2257 275.1177 0001314 084.3069 275.8275 14.37900684810322
Epoch (UTC): 20 August 2017 13:04:38
Eccentricity: 0.0001314
inclination: 98.2257°
perigee height: 764 km
apogee height: 766 km
right ascension of ascending node: 275.1177°
argument of perigee: 84.3069°
revolutions per day: 14.37900684
mean anomaly at epoch: 275.8275°
orbit number at epoch: 81032

The dashed part of the orbit path shows where the satellite is in the earth's shadow,  

DLR